owner,sensor,date,latitude,longitude,vertical_datum,sea_water_temperature,qcFlag 
WAVCIS,ioos:station:WAVCIS:CSI16:2,2009-07-01T00:00:00Z,29.4012,-89.0355,10.0,21.694,11111222 
WAVCIS,ioos:station:WAVCIS:CSI16:2,2009-07-01T00:15:00Z,29.4012,-89.0355,10.0,21.701,11111222 
WAVCIS,ioos:station:WAVCIS:CSI16:2,2009-07-01T00:30:00Z,29.4012,-89.0355,10.0,21.523,11111222 
WAVCIS,ioos:station:WAVCIS:CSI16:2,2009-07-01T00:45:00Z,29.4012,-89.0355,10.0,21.471,11111222 
WAVCIS,ioos:station:WAVCIS:CSI16:2,2009-07-01T01:00:00Z,29.4012,-89.0355,10.0,21.413,11111222 
WAVCIS,ioos:station:WAVCIS:CSI16:2,2009-07-01T01:15:00Z,29.4012,-89.0355,10.0,21.455,11111222 
WAVCIS,ioos:station:WAVCIS:CSI16:2,2009-07-01T01:30:00Z,29.4012,-89.0355,10.0,21.619,11111222 
WAVCIS,ioos:station:WAVCIS:CSI16:2,2009-07-01T01:45:00Z,29.4012,-89.0355,10.0,21.498,11111222 
WAVCIS,ioos:station:WAVCIS:CSI16:2,2009-07-01T02:00:00Z,29.4012,-89.0355,10.0,21.476,11111222 
WAVCIS,ioos:station:WAVCIS:CSI16:2,2009-07-01T02:15:00Z,29.4012,-89.0355,10.0,21.419,11111222 
WAVCIS,ioos:station:WAVCIS:CSI16:2,2009-07-01T02:30:00Z,29.4012,-89.0355,10.0,21.404,11111222 
WAVCIS,ioos:station:WAVCIS:CSI16:2,2009-07-01T02:45:00Z,29.4012,-89.0355,10.0,21.447,11111222 
WAVCIS,ioos:station:WAVCIS:CSI16:2,2009-07-01T03:00:00Z,29.4012,-89.0355,10.0,21.402,11111222 
WAVCIS,ioos:station:WAVCIS:CSI16:2,2009-07-01T03:15:00Z,29.4012,-89.0355,10.0,21.578,11111222 
WAVCIS,ioos:station:WAVCIS:CSI16:2,2009-07-01T03:30:00Z,29.4012,-89.0355,10.0,21.628,11111222 
WAVCIS,ioos:station:WAVCIS:CSI16:2,2009-07-01T03:45:00Z,29.4012,-89.0355,10.0,21.588,11111222 
WAVCIS,ioos:station:WAVCIS:CSI16:2,2009-07-01T04:00:00Z,29.4012,-89.0355,10.0,21.609,11111222 
WAVCIS,ioos:station:WAVCIS:CSI16:2,2009-07-01T04:15:00Z,29.4012,-89.0355,10.0,21.533,11111222 
WAVCIS,ioos:station:WAVCIS:CSI16:2,2009-07-01T04:30:00Z,29.4012,-89.0355,10.0,21.49,11111222 
WAVCIS,ioos:station:WAVCIS:CSI16:2,2009-07-01T04:45:00Z,29.4012,-89.0355,10.0,21.492,11111222 
WAVCIS,ioos:station:WAVCIS:CSI16:2,2009-07-01T05:00:00Z,29.4012,-89.0355,10.0,21.478,11111222 
WAVCIS,ioos:station:WAVCIS:CSI16:2,2009-07-01T05:15:00Z,29.4012,-89.0355,10.0,21.45,11111222 
WAVCIS,ioos:station:WAVCIS:CSI16:2,2009-07-01T05:30:00Z,29.4012,-89.0355,10.0,21.438,11111222 
WAVCIS,ioos:station:WAVCIS:CSI16:2,2009-07-01T05:45:00Z,29.4012,-89.0355,10.0,21.423,11111222 
WAVCIS,ioos:station:WAVCIS:CSI16:2,2009-07-01T06:00:00Z,29.4012,-89.0355,10.0,21.417,11111222 
WAVCIS,ioos:station:WAVCIS:CSI16:2,2009-07-01T06:15:00Z,29.4012,-89.0355,10.0,21.402,11111222 
WAVCIS,ioos:station:WAVCIS:CSI16:2,2009-07-01T06:30:00Z,29.4012,-89.0355,10.0,21.38,11111222 
WAVCIS,ioos:station:WAVCIS:CSI16:2,2009-07-01T06:45:00Z,29.4012,-89.0355,10.0,21.347,11111222 
WAVCIS,ioos:station:WAVCIS:CSI16:2,2009-07-01T07:00:00Z,29.4012,-89.0355,10.0,21.323,11111222 
WAVCIS,ioos:station:WAVCIS:CSI16:2,2009-07-01T07:15:00Z,29.4012,-89.0355,10.0,21.31,11111222 
WAVCIS,ioos:station:WAVCIS:CSI16:2,2009-07-01T07:30:00Z,29.4012,-89.0355,10.0,21.295,11111222 
WAVCIS,ioos:station:WAVCIS:CSI16:2,2009-07-01T07:45:00Z,29.4012,-89.0355,10.0,21.287,11111222 
WAVCIS,ioos:station:WAVCIS:CSI16:2,2009-07-01T08:00:00Z,29.4012,-89.0355,10.0,21.276,11111222 
WAVCIS,ioos:station:WAVCIS:CSI16:2,2009-07-01T08:15:00Z,29.4012,-89.0355,10.0,21.279,11111222 
WAVCIS,ioos:station:WAVCIS:CSI16:2,2009-07-01T08:30:00Z,29.4012,-89.0355,10.0,21.299,11111222 
WAVCIS,ioos:station:WAVCIS:CSI16:2,2009-07-01T08:45:00Z,29.4012,-89.0355,10.0,21.306,11111222 
WAVCIS,ioos:station:WAVCIS:CSI16:2,2009-07-01T09:00:00Z,29.4012,-89.0355,10.0,21.354,11111222 
WAVCIS,ioos:station:WAVCIS:CSI16:2,2009-07-01T09:15:00Z,29.4012,-89.0355,10.0,21.321,11111222 
WAVCIS,ioos:station:WAVCIS:CSI16:2,2009-07-01T09:30:00Z,29.4012,-89.0355,10.0,21.383,11111222 
WAVCIS,ioos:station:WAVCIS:CSI16:2,2009-07-01T09:45:00Z,29.4012,-89.0355,10.0,21.362,11111222 
WAVCIS,ioos:station:WAVCIS:CSI16:2,2009-07-01T10:00:00Z,29.4012,-89.0355,10.0,21.322,11111222 
WAVCIS,ioos:station:WAVCIS:CSI16:2,2009-07-01T10:15:00Z,29.4012,-89.0355,10.0,21.34,11111222 
WAVCIS,ioos:station:WAVCIS:CSI16:2,2009-07-01T10:30:00Z,29.4012,-89.0355,10.0,21.337,11111222 
WAVCIS,ioos:station:WAVCIS:CSI16:2,2009-07-01T10:45:00Z,29.4012,-89.0355,10.0,21.369,11111222 
WAVCIS,ioos:station:WAVCIS:CSI16:2,2009-07-01T11:00:00Z,29.4012,-89.0355,10.0,21.305,11111222 
WAVCIS,ioos:station:WAVCIS:CSI16:2,2009-07-01T11:15:00Z,29.4012,-89.0355,10.0,21.328,11111222 
WAVCIS,ioos:station:WAVCIS:CSI16:2,2009-07-01T11:30:00Z,29.4012,-89.0355,10.0,21.31,11111222 
WAVCIS,ioos:station:WAVCIS:CSI16:2,2009-07-01T11:45:00Z,29.4012,-89.0355,10.0,21.299,11111222 
WAVCIS,ioos:station:WAVCIS:CSI16:2,2009-07-01T12:00:00Z,29.4012,-89.0355,10.0,21.294,11111222 
WAVCIS,ioos:station:WAVCIS:CSI16:2,2009-07-01T12:15:00Z,29.4012,-89.0355,10.0,21.281,11111222 
WAVCIS,ioos:station:WAVCIS:CSI16:2,2009-07-01T12:30:00Z,29.4012,-89.0355,10.0,21.284,11111222 
WAVCIS,ioos:station:WAVCIS:CSI16:2,2009-07-01T12:45:00Z,29.4012,-89.0355,10.0,21.284,11111222 
WAVCIS,ioos:station:WAVCIS:CSI16:2,2009-07-01T13:00:00Z,29.4012,-89.0355,10.0,21.283,11111222 
WAVCIS,ioos:station:WAVCIS:CSI16:2,2009-07-01T13:15:00Z,29.4012,-89.0355,10.0,21.286,11111222 
WAVCIS,ioos:station:WAVCIS:CSI16:2,2009-07-01T13:30:00Z,29.4012,-89.0355,10.0,21.288,11111222 
WAVCIS,ioos:station:WAVCIS:CSI16:2,2009-07-01T13:45:00Z,29.4012,-89.0355,10.0,21.295,11111222 
WAVCIS,ioos:station:WAVCIS:CSI16:2,2009-07-01T14:00:00Z,29.4012,-89.0355,10.0,21.296,11111222 
WAVCIS,ioos:station:WAVCIS:CSI16:2,2009-07-01T14:15:00Z,29.4012,-89.0355,10.0,21.293,11111222 
WAVCIS,ioos:station:WAVCIS:CSI16:2,2009-07-01T14:30:00Z,29.4012,-89.0355,10.0,21.296,11111222 
WAVCIS,ioos:station:WAVCIS:CSI16:2,2009-07-01T14:45:00Z,29.4012,-89.0355,10.0,21.298,11111222 
WAVCIS,ioos:station:WAVCIS:CSI16:2,2009-07-01T15:00:00Z,29.4012,-89.0355,10.0,21.31,11111222 
WAVCIS,ioos:station:WAVCIS:CSI16:2,2009-07-01T15:15:00Z,29.4012,-89.0355,10.0,21.308,11111222 
WAVCIS,ioos:station:WAVCIS:CSI16:2,2009-07-01T15:30:00Z,29.4012,-89.0355,10.0,21.31,11111222 
WAVCIS,ioos:station:WAVCIS:CSI16:2,2009-07-01T15:45:00Z,29.4012,-89.0355,10.0,21.311,11111222 
WAVCIS,ioos:station:WAVCIS:CSI16:2,2009-07-01T16:00:00Z,29.4012,-89.0355,10.0,21.314,11111222 
WAVCIS,ioos:station:WAVCIS:CSI16:2,2009-07-01T16:15:00Z,29.4012,-89.0355,10.0,21.312,11111222 
WAVCIS,ioos:station:WAVCIS:CSI16:2,2009-07-01T16:30:00Z,29.4012,-89.0355,10.0,21.325,11111222 
WAVCIS,ioos:station:WAVCIS:CSI16:2,2009-07-01T16:45:00Z,29.4012,-89.0355,10.0,21.344,11111222 
WAVCIS,ioos:station:WAVCIS:CSI16:2,2009-07-01T17:00:00Z,29.4012,-89.0355,10.0,21.374,11111222 
WAVCIS,ioos:station:WAVCIS:CSI16:2,2009-07-01T17:15:00Z,29.4012,-89.0355,10.0,21.351,11111222 
WAVCIS,ioos:station:WAVCIS:CSI16:2,2009-07-01T17:30:00Z,29.4012,-89.0355,10.0,21.374,11111222 
WAVCIS,ioos:station:WAVCIS:CSI16:2,2009-07-01T17:45:00Z,29.4012,-89.0355,10.0,21.394,11111222 
WAVCIS,ioos:station:WAVCIS:CSI16:2,2009-07-01T18:00:00Z,29.4012,-89.0355,10.0,21.416,11111222 
WAVCIS,ioos:station:WAVCIS:CSI16:2,2009-07-01T18:15:00Z,29.4012,-89.0355,10.0,21.414,11111222 
WAVCIS,ioos:station:WAVCIS:CSI16:2,2009-07-01T18:30:00Z,29.4012,-89.0355,10.0,21.383,11111222 
WAVCIS,ioos:station:WAVCIS:CSI16:2,2009-07-01T18:45:00Z,29.4012,-89.0355,10.0,21.355,11111222 
WAVCIS,ioos:station:WAVCIS:CSI16:2,2009-07-01T19:00:00Z,29.4012,-89.0355,10.0,21.349,11111222 
WAVCIS,ioos:station:WAVCIS:CSI16:2,2009-07-01T19:15:00Z,29.4012,-89.0355,10.0,21.353,11111222 
WAVCIS,ioos:station:WAVCIS:CSI16:2,2009-07-01T19:30:00Z,29.4012,-89.0355,10.0,21.355,11111222 
WAVCIS,ioos:station:WAVCIS:CSI16:2,2009-07-01T19:45:00Z,29.4012,-89.0355,10.0,21.358,11111222 
WAVCIS,ioos:station:WAVCIS:CSI16:2,2009-07-01T20:00:00Z,29.4012,-89.0355,10.0,21.357,11111222 
WAVCIS,ioos:station:WAVCIS:CSI16:2,2009-07-01T20:15:00Z,29.4012,-89.0355,10.0,21.363,11111222 
WAVCIS,ioos:station:WAVCIS:CSI16:2,2009-07-01T20:30:00Z,29.4012,-89.0355,10.0,21.382,11111222 
WAVCIS,ioos:station:WAVCIS:CSI16:2,2009-07-01T20:45:00Z,29.4012,-89.0355,10.0,21.381,11111222 
WAVCIS,ioos:station:WAVCIS:CSI16:2,2009-07-01T21:00:00Z,29.4012,-89.0355,10.0,21.377,11111222 
WAVCIS,ioos:station:WAVCIS:CSI16:2,2009-07-01T21:15:00Z,29.4012,-89.0355,10.0,21.396,11111222 
WAVCIS,ioos:station:WAVCIS:CSI16:2,2009-07-01T21:30:00Z,29.4012,-89.0355,10.0,21.445,11111222 
WAVCIS,ioos:station:WAVCIS:CSI16:2,2009-07-01T21:45:00Z,29.4012,-89.0355,10.0,21.524,11111222 
WAVCIS,ioos:station:WAVCIS:CSI16:2,2009-07-01T22:00:00Z,29.4012,-89.0355,10.0,21.556,11111222 
WAVCIS,ioos:station:WAVCIS:CSI16:2,2009-07-01T22:15:00Z,29.4012,-89.0355,10.0,21.511,11111222 
WAVCIS,ioos:station:WAVCIS:CSI16:2,2009-07-01T22:30:00Z,29.4012,-89.0355,10.0,21.512,11111222 
WAVCIS,ioos:station:WAVCIS:CSI16:2,2009-07-01T22:45:00Z,29.4012,-89.0355,10.0,21.507,11111222 
WAVCIS,ioos:station:WAVCIS:CSI16:2,2009-07-01T23:00:00Z,29.4012,-89.0355,10.0,21.484,11111222 
WAVCIS,ioos:station:WAVCIS:CSI16:2,2009-07-01T23:15:00Z,29.4012,-89.0355,10.0,21.469,11111222 
WAVCIS,ioos:station:WAVCIS:CSI16:2,2009-07-01T23:30:00Z,29.4012,-89.0355,10.0,21.472,11111222 
WAVCIS,ioos:station:WAVCIS:CSI16:2,2009-07-01T23:45:00Z,29.4012,-89.0355,10.0,21.478,11111222 
WAVCIS,ioos:station:WAVCIS:CSI16:2,2009-07-02T00:00:00Z,29.4012,-89.0355,10.0,21.548,11111222 
WAVCIS,ioos:station:WAVCIS:CSI16:2,2009-07-02T00:15:00Z,29.4012,-89.0355,10.0,21.624,11111222 
WAVCIS,ioos:station:WAVCIS:CSI16:2,2009-07-02T00:30:00Z,29.4012,-89.0355,10.0,22.075,11111222 
WAVCIS,ioos:station:WAVCIS:CSI16:2,2009-07-02T00:45:00Z,29.4012,-89.0355,10.0,22.258,11111222 
WAVCIS,ioos:station:WAVCIS:CSI16:2,2009-07-02T01:00:00Z,29.4012,-89.0355,10.0,22.788,11111222 
WAVCIS,ioos:station:WAVCIS:CSI16:2,2009-07-02T01:15:00Z,29.4012,-89.0355,10.0,22.831,11111222 
WAVCIS,ioos:station:WAVCIS:CSI16:2,2009-07-02T01:30:00Z,29.4012,-89.0355,10.0,21.841,11111222 
WAVCIS,ioos:station:WAVCIS:CSI16:2,2009-07-02T01:45:00Z,29.4012,-89.0355,10.0,21.508,11111222 
WAVCIS,ioos:station:WAVCIS:CSI16:2,2009-07-02T02:00:00Z,29.4012,-89.0355,10.0,21.616,11111222 
WAVCIS,ioos:station:WAVCIS:CSI16:2,2009-07-02T02:15:00Z,29.4012,-89.0355,10.0,21.488,11111222 
WAVCIS,ioos:station:WAVCIS:CSI16:2,2009-07-02T02:30:00Z,29.4012,-89.0355,10.0,21.474,11111222 
WAVCIS,ioos:station:WAVCIS:CSI16:2,2009-07-02T02:45:00Z,29.4012,-89.0355,10.0,21.473,11111222 
WAVCIS,ioos:station:WAVCIS:CSI16:2,2009-07-02T03:00:00Z,29.4012,-89.0355,10.0,21.573,11111222 
WAVCIS,ioos:station:WAVCIS:CSI16:2,2009-07-02T03:15:00Z,29.4012,-89.0355,10.0,21.739,11111222 
WAVCIS,ioos:station:WAVCIS:CSI16:2,2009-07-02T03:30:00Z,29.4012,-89.0355,10.0,21.633,11111222 
WAVCIS,ioos:station:WAVCIS:CSI16:2,2009-07-02T03:45:00Z,29.4012,-89.0355,10.0,21.527,11111222 
WAVCIS,ioos:station:WAVCIS:CSI16:2,2009-07-02T04:00:00Z,29.4012,-89.0355,10.0,21.703,11111222 
WAVCIS,ioos:station:WAVCIS:CSI16:2,2009-07-02T04:15:00Z,29.4012,-89.0355,10.0,21.586,11111222 
WAVCIS,ioos:station:WAVCIS:CSI16:2,2009-07-02T04:30:00Z,29.4012,-89.0355,10.0,21.59,11111222 
WAVCIS,ioos:station:WAVCIS:CSI16:2,2009-07-02T04:45:00Z,29.4012,-89.0355,10.0,21.548,11111222 
WAVCIS,ioos:station:WAVCIS:CSI16:2,2009-07-02T05:00:00Z,29.4012,-89.0355,10.0,21.47,11111222 
WAVCIS,ioos:station:WAVCIS:CSI16:2,2009-07-02T05:15:00Z,29.4012,-89.0355,10.0,21.401,11111222 
WAVCIS,ioos:station:WAVCIS:CSI16:2,2009-07-02T05:30:00Z,29.4012,-89.0355,10.0,21.411,11111222 
WAVCIS,ioos:station:WAVCIS:CSI16:2,2009-07-02T05:45:00Z,29.4012,-89.0355,10.0,21.39,11111222 
WAVCIS,ioos:station:WAVCIS:CSI16:2,2009-07-02T06:00:00Z,29.4012,-89.0355,10.0,21.382,11111222 
WAVCIS,ioos:station:WAVCIS:CSI16:2,2009-07-02T06:15:00Z,29.4012,-89.0355,10.0,21.437,11111222 
WAVCIS,ioos:station:WAVCIS:CSI16:2,2009-07-02T06:30:00Z,29.4012,-89.0355,10.0,21.453,11111222 
WAVCIS,ioos:station:WAVCIS:CSI16:2,2009-07-02T06:45:00Z,29.4012,-89.0355,10.0,21.484,11111222 
WAVCIS,ioos:station:WAVCIS:CSI16:2,2009-07-02T07:00:00Z,29.4012,-89.0355,10.0,21.515,11111222 
WAVCIS,ioos:station:WAVCIS:CSI16:2,2009-07-02T07:15:00Z,29.4012,-89.0355,10.0,21.588,11111222 
WAVCIS,ioos:station:WAVCIS:CSI16:2,2009-07-02T07:30:00Z,29.4012,-89.0355,10.0,21.597,11111222 
WAVCIS,ioos:station:WAVCIS:CSI16:2,2009-07-02T07:45:00Z,29.4012,-89.0355,10.0,21.678,11111222 
WAVCIS,ioos:station:WAVCIS:CSI16:2,2009-07-02T08:00:00Z,29.4012,-89.0355,10.0,21.685,11111222 
WAVCIS,ioos:station:WAVCIS:CSI16:2,2009-07-02T08:15:00Z,29.4012,-89.0355,10.0,21.657,11111222 
WAVCIS,ioos:station:WAVCIS:CSI16:2,2009-07-02T08:30:00Z,29.4012,-89.0355,10.0,21.618,11111222 
WAVCIS,ioos:station:WAVCIS:CSI16:2,2009-07-02T08:45:00Z,29.4012,-89.0355,10.0,21.821,11111222 
WAVCIS,ioos:station:WAVCIS:CSI16:2,2009-07-02T09:00:00Z,29.4012,-89.0355,10.0,21.766,11111222 
WAVCIS,ioos:station:WAVCIS:CSI16:2,2009-07-02T09:15:00Z,29.4012,-89.0355,10.0,21.762,11111222 
WAVCIS,ioos:station:WAVCIS:CSI16:2,2009-07-02T09:30:00Z,29.4012,-89.0355,10.0,21.712,11111222 
WAVCIS,ioos:station:WAVCIS:CSI16:2,2009-07-02T09:45:00Z,29.4012,-89.0355,10.0,21.702,11111222 
WAVCIS,ioos:station:WAVCIS:CSI16:2,2009-07-02T10:00:00Z,29.4012,-89.0355,10.0,21.668,11111222 
WAVCIS,ioos:station:WAVCIS:CSI16:2,2009-07-02T10:15:00Z,29.4012,-89.0355,10.0,21.652,11111222 
WAVCIS,ioos:station:WAVCIS:CSI16:2,2009-07-02T10:30:00Z,29.4012,-89.0355,10.0,21.724,11111222 
WAVCIS,ioos:station:WAVCIS:CSI16:2,2009-07-02T10:45:00Z,29.4012,-89.0355,10.0,21.606,11111222 
WAVCIS,ioos:station:WAVCIS:CSI16:2,2009-07-02T11:00:00Z,29.4012,-89.0355,10.0,21.682,11111222 
WAVCIS,ioos:station:WAVCIS:CSI16:2,2009-07-02T11:15:00Z,29.4012,-89.0355,10.0,21.656,11111222 
WAVCIS,ioos:station:WAVCIS:CSI16:2,2009-07-02T11:30:00Z,29.4012,-89.0355,10.0,21.641,11111222 
WAVCIS,ioos:station:WAVCIS:CSI16:2,2009-07-02T11:45:00Z,29.4012,-89.0355,10.0,21.524,11111222 
WAVCIS,ioos:station:WAVCIS:CSI16:2,2009-07-02T12:00:00Z,29.4012,-89.0355,10.0,21.594,11111222 
WAVCIS,ioos:station:WAVCIS:CSI16:2,2009-07-02T12:15:00Z,29.4012,-89.0355,10.0,21.626,11111222 
WAVCIS,ioos:station:WAVCIS:CSI16:2,2009-07-02T12:30:00Z,29.4012,-89.0355,10.0,21.583,11111222 
WAVCIS,ioos:station:WAVCIS:CSI16:2,2009-07-02T12:45:00Z,29.4012,-89.0355,10.0,21.621,11111222 
WAVCIS,ioos:station:WAVCIS:CSI16:2,2009-07-02T13:00:00Z,29.4012,-89.0355,10.0,21.654,11111222 
WAVCIS,ioos:station:WAVCIS:CSI16:2,2009-07-02T13:15:00Z,29.4012,-89.0355,10.0,21.685,11111222 
WAVCIS,ioos:station:WAVCIS:CSI16:2,2009-07-02T13:30:00Z,29.4012,-89.0355,10.0,21.695,11111222 
WAVCIS,ioos:station:WAVCIS:CSI16:2,2009-07-02T13:45:00Z,29.4012,-89.0355,10.0,21.693,11111222 
WAVCIS,ioos:station:WAVCIS:CSI16:2,2009-07-02T14:00:00Z,29.4012,-89.0355,10.0,21.77,11111222 
WAVCIS,ioos:station:WAVCIS:CSI16:2,2009-07-02T14:15:00Z,29.4012,-89.0355,10.0,21.803,11111222 
WAVCIS,ioos:station:WAVCIS:CSI16:2,2009-07-02T14:30:00Z,29.4012,-89.0355,10.0,21.756,11111222 
WAVCIS,ioos:station:WAVCIS:CSI16:2,2009-07-02T14:45:00Z,29.4012,-89.0355,10.0,21.798,11111222 
WAVCIS,ioos:station:WAVCIS:CSI16:2,2009-07-02T15:00:00Z,29.4012,-89.0355,10.0,21.675,11111222 
WAVCIS,ioos:station:WAVCIS:CSI16:2,2009-07-02T15:15:00Z,29.4012,-89.0355,10.0,21.517,11111222 
WAVCIS,ioos:station:WAVCIS:CSI16:2,2009-07-02T15:30:00Z,29.4012,-89.0355,10.0,21.518,11111222 
WAVCIS,ioos:station:WAVCIS:CSI16:2,2009-07-02T15:45:00Z,29.4012,-89.0355,10.0,21.525,11111222 
WAVCIS,ioos:station:WAVCIS:CSI16:2,2009-07-02T16:00:00Z,29.4012,-89.0355,10.0,21.694,11111222 
WAVCIS,ioos:station:WAVCIS:CSI16:2,2009-07-02T16:15:00Z,29.4012,-89.0355,10.0,21.694,11111222 
WAVCIS,ioos:station:WAVCIS:CSI16:2,2009-07-02T16:30:00Z,29.4012,-89.0355,10.0,21.526,11111222 
WAVCIS,ioos:station:WAVCIS:CSI16:2,2009-07-02T16:45:00Z,29.4012,-89.0355,10.0,21.694,11111222 
WAVCIS,ioos:station:WAVCIS:CSI16:2,2009-07-02T17:00:00Z,29.4012,-89.0355,10.0,21.687,11111222 
WAVCIS,ioos:station:WAVCIS:CSI16:2,2009-07-02T17:15:00Z,29.4012,-89.0355,10.0,21.636,11111222 
WAVCIS,ioos:station:WAVCIS:CSI16:2,2009-07-02T17:30:00Z,29.4012,-89.0355,10.0,21.592,11111222 
WAVCIS,ioos:station:WAVCIS:CSI16:2,2009-07-02T17:45:00Z,29.4012,-89.0355,10.0,21.591,11111222 
WAVCIS,ioos:station:WAVCIS:CSI16:2,2009-07-02T18:00:00Z,29.4012,-89.0355,10.0,21.563,11111222 
WAVCIS,ioos:station:WAVCIS:CSI16:2,2009-07-02T18:15:00Z,29.4012,-89.0355,10.0,21.563,11111222 
WAVCIS,ioos:station:WAVCIS:CSI16:2,2009-07-02T18:30:00Z,29.4012,-89.0355,10.0,21.544,11111222 
WAVCIS,ioos:station:WAVCIS:CSI16:2,2009-07-02T18:45:00Z,29.4012,-89.0355,10.0,21.566,11111222 
WAVCIS,ioos:station:WAVCIS:CSI16:2,2009-07-02T19:00:00Z,29.4012,-89.0355,10.0,21.565,11111222 
WAVCIS,ioos:station:WAVCIS:CSI16:2,2009-07-02T19:15:00Z,29.4012,-89.0355,10.0,21.55,11111222 
WAVCIS,ioos:station:WAVCIS:CSI16:2,2009-07-02T19:30:00Z,29.4012,-89.0355,10.0,21.542,11111222 
WAVCIS,ioos:station:WAVCIS:CSI16:2,2009-07-02T19:45:00Z,29.4012,-89.0355,10.0,21.541,11111222 
WAVCIS,ioos:station:WAVCIS:CSI16:2,2009-07-02T20:00:00Z,29.4012,-89.0355,10.0,21.546,11111222 
WAVCIS,ioos:station:WAVCIS:CSI16:2,2009-07-02T20:15:00Z,29.4012,-89.0355,10.0,21.536,11111222 
WAVCIS,ioos:station:WAVCIS:CSI16:2,2009-07-02T20:30:00Z,29.4012,-89.0355,10.0,21.531,11111222 
WAVCIS,ioos:station:WAVCIS:CSI16:2,2009-07-02T20:45:00Z,29.4012,-89.0355,10.0,21.542,11111222 
WAVCIS,ioos:station:WAVCIS:CSI16:2,2009-07-02T21:00:00Z,29.4012,-89.0355,10.0,21.549,11111222 
WAVCIS,ioos:station:WAVCIS:CSI16:2,2009-07-02T21:15:00Z,29.4012,-89.0355,10.0,21.561,11111222 
WAVCIS,ioos:station:WAVCIS:CSI16:2,2009-07-02T21:30:00Z,29.4012,-89.0355,10.0,21.57,11111222 
WAVCIS,ioos:station:WAVCIS:CSI16:2,2009-07-02T21:45:00Z,29.4012,-89.0355,10.0,21.576,11111222 
WAVCIS,ioos:station:WAVCIS:CSI16:2,2009-07-02T22:00:00Z,29.4012,-89.0355,10.0,21.585,11111222 
WAVCIS,ioos:station:WAVCIS:CSI16:2,2009-07-02T22:15:00Z,29.4012,-89.0355,10.0,21.595,11111222 
WAVCIS,ioos:station:WAVCIS:CSI16:2,2009-07-02T22:30:00Z,29.4012,-89.0355,10.0,21.614,11111222 
WAVCIS,ioos:station:WAVCIS:CSI16:2,2009-07-02T22:45:00Z,29.4012,-89.0355,10.0,21.616,11111222 
WAVCIS,ioos:station:WAVCIS:CSI16:2,2009-07-02T23:00:00Z,29.4012,-89.0355,10.0,21.591,11111222 
WAVCIS,ioos:station:WAVCIS:CSI16:2,2009-07-02T23:15:00Z,29.4012,-89.0355,10.0,21.596,11111222 
WAVCIS,ioos:station:WAVCIS:CSI16:2,2009-07-02T23:30:00Z,29.4012,-89.0355,10.0,21.646,11111222 
WAVCIS,ioos:station:WAVCIS:CSI16:2,2009-07-02T23:45:00Z,29.4012,-89.0355,10.0,21.615,11111222 
WAVCIS,ioos:station:WAVCIS:CSI16:2,2009-07-03T00:00:00Z,29.4012,-89.0355,10.0,21.643,11111222 
WAVCIS,ioos:station:WAVCIS:CSI16:2,2009-07-03T00:15:00Z,29.4012,-89.0355,10.0,21.701,11111222 
WAVCIS,ioos:station:WAVCIS:CSI16:2,2009-07-03T00:30:00Z,29.4012,-89.0355,10.0,21.724,11111222 
WAVCIS,ioos:station:WAVCIS:CSI16:2,2009-07-03T00:45:00Z,29.4012,-89.0355,10.0,21.7,11111222 
WAVCIS,ioos:station:WAVCIS:CSI16:2,2009-07-03T01:00:00Z,29.4012,-89.0355,10.0,21.635,11111222 
WAVCIS,ioos:station:WAVCIS:CSI16:2,2009-07-03T01:15:00Z,29.4012,-89.0355,10.0,21.637,11111222 
WAVCIS,ioos:station:WAVCIS:CSI16:2,2009-07-03T01:30:00Z,29.4012,-89.0355,10.0,21.62,11111222 
WAVCIS,ioos:station:WAVCIS:CSI16:2,2009-07-03T01:45:00Z,29.4012,-89.0355,10.0,21.607,11111222 
WAVCIS,ioos:station:WAVCIS:CSI16:2,2009-07-03T02:00:00Z,29.4012,-89.0355,10.0,21.602,11111222 
WAVCIS,ioos:station:WAVCIS:CSI16:2,2009-07-03T02:15:00Z,29.4012,-89.0355,10.0,21.6,11111222 
WAVCIS,ioos:station:WAVCIS:CSI16:2,2009-07-03T02:30:00Z,29.4012,-89.0355,10.0,21.591,11111222 
WAVCIS,ioos:station:WAVCIS:CSI16:2,2009-07-03T02:45:00Z,29.4012,-89.0355,10.0,21.573,11111222 
WAVCIS,ioos:station:WAVCIS:CSI16:2,2009-07-03T03:00:00Z,29.4012,-89.0355,10.0,21.571,11111222 
WAVCIS,ioos:station:WAVCIS:CSI16:2,2009-07-03T03:15:00Z,29.4012,-89.0355,10.0,21.569,11111222 
WAVCIS,ioos:station:WAVCIS:CSI16:2,2009-07-03T03:30:00Z,29.4012,-89.0355,10.0,21.551,11111222 
WAVCIS,ioos:station:WAVCIS:CSI16:2,2009-07-03T03:45:00Z,29.4012,-89.0355,10.0,21.551,11111222 
WAVCIS,ioos:station:WAVCIS:CSI16:2,2009-07-03T04:00:00Z,29.4012,-89.0355,10.0,21.562,11111222 
WAVCIS,ioos:station:WAVCIS:CSI16:2,2009-07-03T04:15:00Z,29.4012,-89.0355,10.0,21.555,11111222 
WAVCIS,ioos:station:WAVCIS:CSI16:2,2009-07-03T04:30:00Z,29.4012,-89.0355,10.0,21.545,11111222 
WAVCIS,ioos:station:WAVCIS:CSI16:2,2009-07-03T04:45:00Z,29.4012,-89.0355,10.0,21.585,11111222 
WAVCIS,ioos:station:WAVCIS:CSI16:2,2009-07-03T05:00:00Z,29.4012,-89.0355,10.0,21.59,11111222 
WAVCIS,ioos:station:WAVCIS:CSI16:2,2009-07-03T05:15:00Z,29.4012,-89.0355,10.0,21.602,11111222 
WAVCIS,ioos:station:WAVCIS:CSI16:2,2009-07-03T05:30:00Z,29.4012,-89.0355,10.0,21.629,11111222 
WAVCIS,ioos:station:WAVCIS:CSI16:2,2009-07-03T05:45:00Z,29.4012,-89.0355,10.0,21.543,11111222 
WAVCIS,ioos:station:WAVCIS:CSI16:2,2009-07-03T06:00:00Z,29.4012,-89.0355,10.0,21.532,11111222 
WAVCIS,ioos:station:WAVCIS:CSI16:2,2009-07-03T06:15:00Z,29.4012,-89.0355,10.0,21.528,11111222 
WAVCIS,ioos:station:WAVCIS:CSI16:2,2009-07-03T06:30:00Z,29.4012,-89.0355,10.0,21.58,11111222 
WAVCIS,ioos:station:WAVCIS:CSI16:2,2009-07-03T06:45:00Z,29.4012,-89.0355,10.0,21.558,11111222 
WAVCIS,ioos:station:WAVCIS:CSI16:2,2009-07-03T07:00:00Z,29.4012,-89.0355,10.0,21.573,11111222 
WAVCIS,ioos:station:WAVCIS:CSI16:2,2009-07-03T07:15:00Z,29.4012,-89.0355,10.0,21.559,11111222 
WAVCIS,ioos:station:WAVCIS:CSI16:2,2009-07-03T07:30:00Z,29.4012,-89.0355,10.0,21.594,11111222 
WAVCIS,ioos:station:WAVCIS:CSI16:2,2009-07-03T07:45:00Z,29.4012,-89.0355,10.0,21.756,11111222 
WAVCIS,ioos:station:WAVCIS:CSI16:2,2009-07-03T08:00:00Z,29.4012,-89.0355,10.0,21.739,11111222 
WAVCIS,ioos:station:WAVCIS:CSI16:2,2009-07-03T08:15:00Z,29.4012,-89.0355,10.0,21.743,11111222 
WAVCIS,ioos:station:WAVCIS:CSI16:2,2009-07-03T08:30:00Z,29.4012,-89.0355,10.0,21.744,11111222 
WAVCIS,ioos:station:WAVCIS:CSI16:2,2009-07-03T08:45:00Z,29.4012,-89.0355,10.0,21.863,11111222 
WAVCIS,ioos:station:WAVCIS:CSI16:2,2009-07-03T09:00:00Z,29.4012,-89.0355,10.0,21.824,11111222 
WAVCIS,ioos:station:WAVCIS:CSI16:2,2009-07-03T09:15:00Z,29.4012,-89.0355,10.0,21.89,11111222 
WAVCIS,ioos:station:WAVCIS:CSI16:2,2009-07-03T09:30:00Z,29.4012,-89.0355,10.0,21.783,11111222 
WAVCIS,ioos:station:WAVCIS:CSI16:2,2009-07-03T09:45:00Z,29.4012,-89.0355,10.0,21.731,11111222 
WAVCIS,ioos:station:WAVCIS:CSI16:2,2009-07-03T10:00:00Z,29.4012,-89.0355,10.0,21.71,11111222 
WAVCIS,ioos:station:WAVCIS:CSI16:2,2009-07-03T10:15:00Z,29.4012,-89.0355,10.0,21.707,11111222 
WAVCIS,ioos:station:WAVCIS:CSI16:2,2009-07-03T10:30:00Z,29.4012,-89.0355,10.0,21.727,11111222 
WAVCIS,ioos:station:WAVCIS:CSI16:2,2009-07-03T10:45:00Z,29.4012,-89.0355,10.0,21.732,11111222 
WAVCIS,ioos:station:WAVCIS:CSI16:2,2009-07-03T11:00:00Z,29.4012,-89.0355,10.0,21.756,11111222 
WAVCIS,ioos:station:WAVCIS:CSI16:2,2009-07-03T11:15:00Z,29.4012,-89.0355,10.0,21.775,11111222 
WAVCIS,ioos:station:WAVCIS:CSI16:2,2009-07-03T11:30:00Z,29.4012,-89.0355,10.0,21.752,11111222 
WAVCIS,ioos:station:WAVCIS:CSI16:2,2009-07-03T11:45:00Z,29.4012,-89.0355,10.0,21.814,11111222 
WAVCIS,ioos:station:WAVCIS:CSI16:2,2009-07-03T12:00:00Z,29.4012,-89.0355,10.0,21.834,11111222 
WAVCIS,ioos:station:WAVCIS:CSI16:2,2009-07-03T12:15:00Z,29.4012,-89.0355,10.0,21.831,11111222 
WAVCIS,ioos:station:WAVCIS:CSI16:2,2009-07-03T12:30:00Z,29.4012,-89.0355,10.0,21.901,11111222 
WAVCIS,ioos:station:WAVCIS:CSI16:2,2009-07-03T12:45:00Z,29.4012,-89.0355,10.0,21.796,11111222 
WAVCIS,ioos:station:WAVCIS:CSI16:2,2009-07-03T13:00:00Z,29.4012,-89.0355,10.0,21.785,11111222 
WAVCIS,ioos:station:WAVCIS:CSI16:2,2009-07-03T13:15:00Z,29.4012,-89.0355,10.0,21.886,11111222 
WAVCIS,ioos:station:WAVCIS:CSI16:2,2009-07-03T13:30:00Z,29.4012,-89.0355,10.0,21.886,11111222 
WAVCIS,ioos:station:WAVCIS:CSI16:2,2009-07-03T13:45:00Z,29.4012,-89.0355,10.0,21.875,11111222 
WAVCIS,ioos:station:WAVCIS:CSI16:2,2009-07-03T14:00:00Z,29.4012,-89.0355,10.0,21.926,11111222 
WAVCIS,ioos:station:WAVCIS:CSI16:2,2009-07-03T14:15:00Z,29.4012,-89.0355,10.0,21.907,11111222 
WAVCIS,ioos:station:WAVCIS:CSI16:2,2009-07-03T14:30:00Z,29.4012,-89.0355,10.0,22.013,11111222 
WAVCIS,ioos:station:WAVCIS:CSI16:2,2009-07-03T14:45:00Z,29.4012,-89.0355,10.0,21.913,11111222 